Mount Ida, AR

8:56 PM CDT on April 28, 2017 (GMT -0500)
Mount Ida

Weather History for KMWT - September, 2012

Change the Weather History Date:

Saturday, September 8, 2012

  Actual Average (KHOT) Record (KHOT)
Temperature  
Mean Temperature 68 °F -  
Max Temperature 81 °F 90 °F 102 °F (1990)
Min Temperature 57 °F 65 °F 50 °F (1988)
Cooling Degree Days 4    
Growing Degree Days 18 (Base 50)    
Moisture  
Dew Point 61 °F    
Average Humidity 78    
Maximum Humidity 100    
Minimum Humidity 31    
Precipitation  
Precipitation 0.22 in - - ()
Sea Level Pressure  
Sea Level Pressure 29.96 in    
Wind  
Wind Speed 2 mph (NW)    
Max Wind Speed 8 mph    
Max Gust Speed -    
Visibility 9 miles    
Events Rain    
Averages and records for this station are not official NWS values.
T = Trace of Precipitation, MM = Missing Value Source: NWS Daily Summary

Daily Weather History Graph

Daily Weather History Graph

Search for Another Location

Airport or City:

Trip Planner

Search our weather history database for the weather conditions in past years. The results will help you decide how hot, cold, wet, or windy it might be!

Date:

Astronomy

Sep. 08, 2012 Rise Set
Actual Time 6:52 AM CDT 7:30 PM CDT
Civil Twilight 6:27 AM CDT 7:55 PM CDT
Nautical Twilight 5:57 AM CDT 8:25 PM CDT
Astronomical Twilight 5:26 AM CDT 8:55 PM CDT
Moon No Moon Rise 2:16 PM CDT (9/8)
Length of Visible Light 13h 28m
Length of Day
12h 37m
Waning Gibbous, 48% of the Moon is Illuminated
Sep 8
Waning Gibbous
Sep 15
New
Sep 22
First Quarter
Sep 29
Full
Oct 8
Last Quarter

Hourly Weather History & Observations

Time (CDT) Temp. Dew Point Humidity Pressure Visibility Wind Dir Wind Speed Gust Speed Precip Events Conditions
12:24 AM 73.4 °F 73.4 °F 100% 29.90 in 1.8 mi Calm Calm - 0.03 in Rain Heavy Rain
12:38 AM 73.4 °F 73.4 °F 100% 29.88 in 3.0 mi Calm Calm - 0.14 in Rain Light Rain
12:53 AM 73.0 °F 73.0 °F 100% 29.85 in 4.0 mi Calm Calm - 0.14 in   Overcast
1:01 AM 73.4 °F 73.4 °F 100% 29.89 in 5.0 mi Calm Calm - 0.00 in Rain Light Rain
1:36 AM 73.4 °F 71.6 °F 94% 29.90 in 7.0 mi Calm Calm - 0.05 in Rain Light Rain
1:53 AM 73.0 °F 72.0 °F 96% 29.86 in 8.0 mi Calm Calm - 0.07 in Rain Light Rain
2:00 AM 71.6 °F 71.6 °F 100% 29.90 in 9.0 mi Calm Calm - 0.00 in Rain Light Rain
2:17 AM 71.6 °F 69.8 °F 94% 29.89 in 8.0 mi Variable 6.9 mph - 0.00 in Rain Light Rain
2:37 AM 69.8 °F 69.8 °F 100% 29.91 in 10.0 mi Variable 4.6 mph - 0.01 in   Overcast
2:53 AM 70.0 °F 69.1 °F 97% 29.88 in 10.0 mi Calm Calm - 0.01 in Rain Light Rain
3:00 AM 69.8 °F 69.8 °F 100% 29.91 in 7.0 mi Variable 4.6 mph - 0.00 in   Overcast
3:08 AM 69.8 °F 68.0 °F 94% 29.92 in 7.0 mi Variable 6.9 mph - 0.00 in Rain Light Rain
3:19 AM 69.8 °F 66.2 °F 88% 29.93 in 10.0 mi Variable 5.8 mph - 0.00 in   Overcast
3:53 AM 68.0 °F 66.0 °F 93% 29.89 in 10.0 mi Variable 3.5 mph - 0.00 in   Overcast
4:53 AM 68.0 °F 64.0 °F 87% 29.91 in 10.0 mi Variable 3.5 mph - N/A   Overcast
5:21 AM 66.2 °F 64.4 °F 94% 29.96 in 10.0 mi WNW 3.5 mph - N/A   Overcast
5:53 AM 66.9 °F 63.0 °F 87% 29.94 in 10.0 mi Variable 3.5 mph - N/A   Mostly Cloudy
6:00 AM 66.2 °F 62.6 °F 88% 29.98 in 10.0 mi Calm Calm - N/A   Mostly Cloudy
6:14 AM 66.2 °F 62.6 °F 88% 29.98 in 10.0 mi Calm Calm - N/A   Mostly Cloudy
6:23 AM 66.2 °F 62.6 °F 88% 29.98 in 10.0 mi Calm Calm - N/A   Overcast
6:53 AM 64.9 °F 62.1 °F 90% 29.96 in 10.0 mi Calm Calm - N/A   Overcast
7:28 AM 64.4 °F 60.8 °F 88% 30.01 in 10.0 mi Calm Calm - N/A   Partly Cloudy
7:53 AM 66.0 °F 59.0 °F 78% 29.99 in 10.0 mi Calm Calm - N/A   Clear
8:53 AM 66.9 °F 54.0 °F 63% 30.01 in 10.0 mi Variable 4.6 mph - N/A   Clear
9:53 AM 70.0 °F 54.0 °F 57% 30.03 in 10.0 mi Variable 5.8 mph - N/A   Clear
10:53 AM 72.0 °F 51.1 °F 48% 30.04 in 10.0 mi Variable 6.9 mph - N/A   Clear
11:53 AM 73.9 °F 52.0 °F 46% 30.03 in 10.0 mi Variable 4.6 mph - N/A   Clear
12:53 PM 75.9 °F 50.0 °F 40% 30.02 in 10.0 mi Variable 5.8 mph - N/A   Clear
1:53 PM 77.0 °F 51.1 °F 40% 30.00 in 10.0 mi Variable 6.9 mph - N/A   Clear
2:53 PM 79.0 °F 51.1 °F 38% 29.98 in 10.0 mi Variable 6.9 mph - N/A   Clear
3:53 PM 80.1 °F 51.1 °F 36% 29.96 in 10.0 mi NNW 8.1 mph - N/A   Clear
4:53 PM 80.1 °F 46.9 °F 31% 29.96 in 10.0 mi Variable 5.8 mph - N/A   Clear
5:53 PM 79.0 °F 48.0 °F 34% 29.96 in 10.0 mi Variable 4.6 mph - N/A   Clear
6:53 PM 75.0 °F 50.0 °F 41% 29.98 in 10.0 mi Calm Calm - N/A   Clear
7:53 PM 66.0 °F 54.0 °F 65% 30.00 in 10.0 mi Calm Calm - N/A   Clear
8:53 PM 62.1 °F 57.9 °F 86% 30.02 in 10.0 mi Calm Calm - N/A   Clear
9:53 PM 61.0 °F 57.0 °F 87% 30.03 in 10.0 mi Calm Calm - N/A   Clear
10:53 PM 57.9 °F 57.0 °F 97% 30.04 in 10.0 mi Calm Calm - N/A   Clear
11:53 PM 57.0 °F 55.0 °F 93% 30.05 in 10.0 mi Calm Calm - N/A   Clear